Location: Andrest
(43.3200°N, 0.0641°E)
Time: 05:39:47
(UTC+00:00)

SL-8 Rocket - Pass Details

Date: 26 April 2021
Orbit: 958 x 989 km, 82.9° (Epoch: 11 May)

Event Time Altitude Azimuth Distance (km) Brightness Sun altitude
Rises 23:19:28 0° 1° (N) 3,702 8.1 -32.2°
Reaches altitude 10° 23:22:28 10° 14° (NNE) 2,753 7.1 -32.3°
Maximum altitude 23:27:41 26° 70° (ENE) 1,823 5.4 -32.4°
Enters shadow 23:27:54 26° 73° (ENE) 1,825 5.4 -32.4°
